Regional Weather Roundup
Issued by NWS

Home | Current Version | Previous Version | Text Only | Print | Product List | Glossary Off
Versions: 1 2 3 4 5 6 7 8 9 10 11 12 13 14 15 16 17 18 19 20 21 22 23 24 25 26 27 28 29 30 31 32 33 34 35 36 37 38 39 40 41 42 43 44 45 46 47 48 49 50

000
ASUS43 KLSX 260307
RWRMO

WEATHER SUMMARY FOR MISSOURI
NATIONAL WEATHER SERVICE SPRINGFIELD MO
1000 PM CDT WED APR 25 2018

NOTE: "FAIR" INDICATES FEW OR NO CLOUDS BELOW 12,000 FEET WITH NO
       SIGNIFICANT WEATHER AND/OR OBSTRUCTIONS TO VISIBILITY.
       CURRENT SKY AND/OR WEATHER CONDITIONS ARE NOT AVAILABLE FOR
       CHILLICOTHE AND FARMINGTON.

MOZ001>031-035>038-043-044-053-054-260400-
...NORTHERN AND WESTERN MISSOURI...

CITY           SKY/WX    TMP DP  RH WIND       PRES   REMARKS
KANSAS CTY INT CLOUDY    49  45  86 NW3       30.05F
KANSAS C DTWN  CLOUDY    51  46  83 CALM      30.05S
LEE`S SUMMIT   CLOUDY    50  49  96 NW5       30.05S
ST JOSEPH      PTCLDY    47  40  76 NW3       30.06R
CHILLICOTHE      N/A     50  45  83 CALM      30.04F
KIRKSVILLE     PTCLDY    45  45 100 W6        30.02S

$$
MOZ066>068-077>081-088>096-101>105-260400-
...SOUTHWEST MISSOURI...

CITY           SKY/WX    TMP DP  RH WIND       PRES   REMARKS
SPRINGFIELD    LGT RAIN  51  48  89 NE9       29.99S
JOPLIN         LGT RAIN  52  51  97 NE5       30.00S FOG
BRANSON        LGT RAIN  50  50 100 CALM      29.99S

$$
MOZ032>034-039>042-045>050-055>058-069>072-260400-
...CENTRAL MISSOURI...

CITY           SKY/WX    TMP DP  RH WIND       PRES   REMARKS
COLUMBIA       LGT RAIN  51  48  89 NW6       30.01S
JEFFERSON CITY LGT RAIN  51  49  92 NW6       30.02R FOG
ROLLA          LGT RAIN  50  48  93 N8        30.00S FOG
SEDALIA        CLOUDY    50  50 100 NW3       30.04S
WHITEMAN AFB   CLOUDY    48  47  97 NW3       30.00R FOG
WARRENSBURG    CLOUDY    46  46 100 NW3       30.04S
OSAGE BEACH    LGT RAIN  49  49 100 CALM      30.03R FOG

$$
MOZ051-052-059>065-260400-
...EAST CENTRAL MISSOURI...

CITY           SKY/WX    TMP DP  RH WIND       PRES   REMARKS
ST LOUIS INTL  LGT RAIN  60  47  61 NW7       29.97S
SPIRIT OF STL  LGT RAIN  56  52  86 W8        29.98R
ST CHARLES     CLOUDY    60  43  53 N9        29.97R

$$
MOZ072>076-082>087-097>100-106>115-260400-
...SOUTH CENTRAL AND SOUTHEAST MISSOURI...

CITY           SKY/WX    TMP DP  RH WIND       PRES   REMARKS
CAPE GIRARDEAU CLOUDY    60  51  72 NW6       29.94R
FARMINGTON     LGT RAIN  53  50  89 NW6       29.99S
POPLAR BLUFF   CLOUDY    59  51  75 NW8       29.95S
WEST PLAINS    CLOUDY    52  50  93 N5        29.98F

$$




USA.gov is the U.S. government's official web portal to all federal, state and local government web resources and services.